Temp
-9 -9 -9 -8 -9 -8 -9 -9 -9 -9 -9 -9 -9 -9 -8 -8 -7 -7 -7 -7 -7 -7 -7 -7 -7 -7 -7 -7 -7 -7 -7 -6 -7 -7 -7 -7 -7 -7 -6 -6 -6 -7 -7
-9 -9 -9 -9 -9 -9 -8 -9 -9 -9 -9 -9 -9 -9 -9 -8 -8 -7 -7 -7 -8 -7 -8 -7 -7 -7 -8 -8 -7 -7 -7 -7 -7 -8 -8 -8 -8 -7 -6 -7 -6 -7 -7
-9 -9 -9 -8 -7 -8 -8 -9 -9 -9 -9 -9 -9 -8 -9 -8 -8 -7 -7 -7 -7 -7 -7 -7 -8 -7 -7 -8 -8 -8 -8 -8 -8 -8 -8 -7 -7 -8 -7 -7 -7 -7 -7
-8 -9 -9 -9 -7 -8 -8 -8 -9 -9 -9 -9 -8 -8 -8 -8 -7 -7 -7 -7 -7 -7 -7 -7 -8 -7 -7 -7 -7 -7 -8 -8 -7 -8 -7 -8 -7 -7 -8 -7 -7 -7 -7
-7 -7 -8 -9 -8 -8 -8 -8 -8 -8 -9 -9 -9 -8 -8 -9 -9 -8 -7 -6 -6 -7 -7 -7 -7 -7 -7 -6 -7 -7 -7 -8 -8 -8 -8 -8 -8 -7 -7 -7 -7 -7 -8
-8 -7 -7 -8 -9 -7 -7 -6 -7 -7 -7 -7 -8 -8 -8 -8 -9 -8 -8 -8 -6 -6 -7 -7 -7 -8 -7 -7 -7 -7 -8 -8 -8 -8 -8 -7 -7 -8 -8 -8 -8 -8 -8
-8 -8 -8 -8 -9 -8 -7 -7 -8 -6 -7 -7 -7 -7 -7 -6 -7 -7 -7 -7 -7 -6 -6 -7 -8 -8 -8 -7 -7 -7 -7 -8 -8 -8 -8 -8 -8 -8 -8 -8 -7 -7 -7
-9 -8 -9 -9 -10 -9 -9 -8 -8 -8 -7 -7 -7 -7 -8 -8 -7 -7 -7 -6 -7 -7 -6 -7 -7 -8 -8 -7 -7 -7 -7 -7 -7 -8 -8 -8 -8 -7 -8 -8 -8 -8 -8
-8 -8 -8 -8 -8 -7 -7 -7 -6 -6 -7 -6 -8 -8 -7 -6 -7 -7 -6 -8 -8 -8 -7 -6 -8 -8 -8 -8 -7 -7 -8 -8 -8 -8 -8 -8 -8 -8 -7 -8 -8 -8 -8
-9 -9 -9 -9 -8 -8 -6 -6 -6 -7 -6 -6 -6 -7 -6 -5 -7 -6 -6 -7 -7 -7 -8 -8 -7 -8 -9 -9 -8 -8 -8 -8 -7 -8 -8 -8 -8 -8 -8 -8 -7 -7 -8
-10 -10 -10 -10 -10 -10 -9 -8 -7 -7 -7 -7 -7 -6 -6 -6 -7 -7 -7 -7 -7 -7 -8 -8 -8 -8 -8 -8 -7 -8 -9 -9 -8 -9 -8 -8 -8 -8 -8 -8 -8 -7 -8
-10 -10 -10 -10 -10 -10 -9 -9 -9 -8 -7 -7 -7 -8 -8 -8 -8 -8 -7 -8 -8 -8 -8 -8 -8 -8 -8 -9 -8 -8 -9 -9 -9 -9 -9 -8 -8 -8 -9 -8 -7 -7 -8
-10 -10 -10 -10 -10 -9 -9 -9 -8 -7 -8 -7 -8 -8 -8 -9 -8 -8 -8 -8 -8 -7 -7 -8 -8 -8 -8 -8 -8 -8 -9 -9 -9 -9 -9 -9 -9 -8 -8 -9 -8 -8 -8
-10 -10 -9 -9 -9 -9 -9 -8 -8 -8 -8 -8 -8 -7 -8 -8 -8 -8 -7 -8 -8 -8 -8 -8 -9 -8 -7 -8 -8 -8 -9 -9 -9 -10 -9 -9 -9 -8 -8 -8 -8 -8 -8
-10 -9 -9 -9 -9 -9 -8 -8 -9 -9 -9 -9 -8 -8 -8 -8 -8 -8 -8 -7 -8 -8 -8 -7 -8 -8 -8 -8 -9 -9 -8 -9 -9 -10 -9 -9 -9 -9 -9 -8 -8 -8 -7
-10 -9 -9 -9 -9 -9 -9 -9 -9 -10 -10 -10 -10 -9 -9 -9 -9 -9 -8 -8 -8 -7 -8 -8 -7 -8 -8 -8 -8 -8 -10 -10 -10 -10 -10 -9 -9 -9 -8 -9 -8 -8 -8
-10 -9 -10 -10 -10 -9 -10 -10 -10 -11 -10 -10 -10 -9 -9 -10 -10 -10 -9 -9 -8 -8 -8 -8 -8 -8 -8 -9 -9 -10 -11 -11 -10 -10 -10 -9 -9 -9 -9 -8 -8 -8 -9
-10 -11 -11 -11 -11 -11 -11 -11 -11 -11 -11 -11 -10 -10 -10 -11 -11 -11 -11 -11 -10 -10 -10 -10 -10 -10 -10 -10 -10 -10 -11 -11 -10 -10 -10 -10 -10 -9 -9 -9 -9 -9 -8
-12 -12 -12 -12 -11 -12 -12 -12 -11 -11 -11 -11 -11 -11 -11 -11 -11 -11 -11 -11 -11 -11 -11 -11 -11 -11 -11 -11 -11 -11 -11 -10 -10 -10 -10 -10 -10 -10 -10 -10 -10 -10 -10
-13 -13 -13 -13 -12 -12 -12 -12 -12 -11 -11 -11 -11 -11 -11 -11 -11 -11 -11 -11 -11 -11 -11 -11 -11 -11 -11 -11 -11 -11 -10 -10 -10 -10 -10 -10 -10 -10 -10 -10 -10 -10 -10
-13 -13 -13 -13 -13 -12 -12 -12 -12 -12 -11 -11 -11 -11 -11 -11 -11 -11 -12 -12 -12 -12 -12 -12 -11 -11 -11 -11 -11 -10 -11 -10 -10 -10 -10 -10 -10 -11 -10 -10 -10 -10 -11
-13 -12 -12 -13 -13 -12 -12 -12 -12 -12 -11 -11 -11 -11 -11 -11 -12 -12 -12 -12 -12 -12 -13 -13 -13 -13 -12 -12 -12 -12 -12 -12 -12 -12 -12 -12 -12 -12 -12 -12 -12 -12 -12
-13 -13 -13 -13 -13 -12 -12 -12 -12 -12 -12 -12 -12 -12 -12 -12 -12 -12 -13 -13 -13 -13 -13 -13 -14 -14 -14 -13 -13 -13 -13 -13 -13 -13 -12 -12 -12 -12 -12 -13 -13 -13 -13
-13 -13 -13 -13 -13 -13 -13 -13 -13 -12 -13 -13 -13 -12 -13 -13 -13 -13 -13 -13 -13 -13 -13 -13 -14 -14 -15 -15 -14 -14 -14 -14 -14 -14 -14 -14 -13 -13 -13 -13 -13 -13 -14
-14 -14 -13 -13 -13 -13 -13 -13 -13 -13 -13 -13 -13 -13 -13 -13 -13 -13 -14 -14 -14 -14 -14 -15 -15 -15 -15 -15 -15 -15 -15 -15 -14 -14 -14 -14 -14 -14 -15 -15 -15 -15 -15
-14 -14 -14 -13 -13 -13 -13 -13 -13 -13 -13 -12 -13 -13 -14 -14 -14 -14 -14 -15 -15 -16 -16 -16 -16 -16 -15 -16 -16 -15 -15 -15 -15 -15 -15 -15 -15 -15 -15 -15 -16 -16 -16
Height
5815 5819 5826 5828 5831 5834 5839 5840 5842 5845 5848 5847 5847 5849 5849 5849 5849 5848 5846 5846 5846 5847 5848 5848 5849 5849 5849 5849 5848 5849 5848 5845 5843 5842 5842 5843 5843 5843 5845 5846 5846 5847 5848
5806 5810 5816 5821 5821 5823 5830 5833 5833 5835 5836 5839 5839 5842 5843 5843 5844 5845 5843 5843 5843 5844 5844 5844 5845 5846 5846 5847 5845 5843 5843 5843 5841 5838 5838 5836 5836 5836 5837 5838 5839 5841 5842
5795 5802 5806 5812 5801 5815 5819 5823 5824 5827 5829 5832 5835 5837 5837 5838 5838 5839 5838 5838 5840 5839 5840 5840 5840 5841 5843 5842 5843 5839 5837 5837 5837 5836 5833 5834 5833 5832 5833 5833 5834 5835 5837
5786 5791 5798 5802 5804 5806 5809 5813 5816 5819 5821 5825 5826 5828 5830 5832 5834 5830 5831 5832 5833 5834 5835 5837 5835 5835 5838 5838 5838 5838 5834 5831 5832 5832 5830 5828 5829 5829 5829 5829 5829 5830 5831
5770 5773 5783 5789 5793 5795 5798 5800 5801 5803 5805 5811 5814 5818 5821 5824 5827 5828 5827 5825 5827 5829 5829 5830 5833 5828 5831 5832 5833 5831 5830 5826 5826 5827 5826 5826 5824 5824 5824 5824 5824 5824 5824
5751 5757 5765 5771 5779 5782 5774 5762 5783 5786 5795 5787 5798 5804 5807 5808 5814 5817 5818 5821 5822 5822 5823 5823 5825 5825 5822 5824 5826 5827 5825 5824 5821 5821 5820 5820 5817 5816 5816 5818 5819 5819 5818
5735 5742 5748 5752 5766 5770 5771 5766 5775 5774 5777 5761 5777 5791 5795 5789 5791 5802 5810 5811 5810 5814 5815 5816 5817 5817 5818 5818 5820 5821 5820 5820 5817 5817 5815 5816 5816 5815 5813 5812 5812 5812 5812
5743 5741 5748 5755 5754 5759 5758 5760 5763 5760 5764 5766 5777 5783 5789 5789 5788 5793 5796 5799 5801 5804 5806 5809 5810 5809 5811 5812 5814 5815 5816 5814 5813 5812 5812 5810 5811 5809 5809 5808 5805 5806 5808
5740 5742 5743 5748 5750 5750 5750 5754 5758 5762 5766 5769 5773 5777 5781 5781 5781 5783 5784 5785 5788 5791 5794 5799 5804 5803 5805 5805 5806 5808 5811 5808 5807 5806 5806 5804 5805 5804 5802 5802 5803 5801 5800
5733 5735 5736 5737 5739 5740 5744 5750 5751 5750 5756 5761 5763 5767 5767 5767 5770 5772 5772 5774 5773 5777 5784 5789 5795 5795 5797 5797 5799 5801 5802 5798 5798 5799 5798 5798 5797 5797 5796 5796 5795 5794 5794
5726 5730 5731 5732 5735 5736 5737 5741 5745 5747 5750 5752 5753 5754 5755 5757 5761 5763 5760 5761 5762 5767 5775 5779 5782 5786 5788 5788 5789 5789 5791 5790 5791 5791 5790 5789 5790 5790 5789 5787 5787 5787 5787
5726 5729 5732 5732 5733 5734 5732 5733 5736 5738 5742 5744 5746 5749 5749 5749 5752 5752 5754 5753 5759 5763 5767 5768 5772 5774 5775 5778 5780 5780 5780 5781 5782 5781 5782 5782 5782 5782 5780 5778 5777 5778 5779
5724 5726 5728 5730 5731 5732 5731 5731 5732 5734 5734 5735 5736 5742 5744 5743 5743 5745 5750 5750 5753 5756 5758 5761 5761 5762 5765 5766 5768 5769 5770 5771 5771 5772 5773 5772 5770 5770 5771 5771 5769 5770 5771
5720 5722 5723 5725 5725 5726 5726 5728 5727 5726 5727 5728 5728 5732 5735 5735 5735 5737 5740 5741 5742 5747 5747 5748 5748 5751 5751 5751 5754 5757 5758 5759 5760 5761 5761 5761 5761 5760 5761 5760 5760 5760 5762
5717 5717 5717 5718 5720 5719 5719 5719 5720 5721 5721 5721 5723 5725 5726 5726 5728 5727 5730 5733 5736 5737 5738 5738 5739 5738 5739 5740 5742 5744 5747 5748 5748 5749 5750 5749 5749 5749 5749 5749 5751 5749 5751
5710 5712 5712 5714 5715 5716 5714 5713 5715 5717 5717 5717 5718 5720 5720 5720 5719 5718 5720 5722 5723 5726 5726 5726 5726 5727 5727 5727 5730 5732 5732 5734 5735 5736 5738 5737 5737 5736 5737 5738 5737 5738 5740
5704 5706 5706 5707 5708 5708 5709 5709 5710 5711 5712 5712 5712 5713 5713 5713 5713 5714 5715 5714 5713 5712 5712 5712 5712 5713 5713 5714 5716 5718 5721 5721 5722 5724 5724 5725 5725 5725 5725 5725 5724 5726 5725
5698 5700 5700 5702 5701 5700 5701 5704 5705 5705 5706 5707 5707 5707 5707 5707 5707 5706 5706 5706 5705 5703 5703 5702 5701 5701 5701 5702 5703 5704 5706 5708 5710 5711 5711 5712 5712 5713 5711 5711 5710 5710 5711
5691 5693 5694 5695 5697 5697 5699 5699 5700 5701 5702 5702 5701 5701 5701 5701 5701 5701 5700 5699 5698 5697 5697 5696 5695 5693 5692 5692 5693 5694 5696 5696 5697 5698 5699 5699 5699 5698 5698 5699 5698 5698 5697
5687 5690 5690 5691 5693 5693 5695 5696 5694 5695 5696 5696 5696 5695 5694 5694 5694 5693 5693 5692 5692 5691 5690 5689 5688 5687 5686 5686 5685 5685 5685 5685 5684 5684 5684 5684 5684 5685 5685 5684 5685 5686 5685
5686 5686 5687 5688 5690 5691 5691 5691 5692 5690 5690 5690 5690 5690 5687 5687 5686 5684 5683 5682 5681 5680 5679 5678 5677 5677 5676 5676 5676 5674 5672 5671 5671 5670 5669 5668 5669 5669 5669 5670 5670 5670 5670
5681 5681 5682 5684 5685 5686 5687 5688 5688 5689 5687 5687 5686 5685 5683 5681 5679 5676 5676 5675 5673 5671 5669 5667 5666 5665 5664 5662 5662 5661 5660 5659 5658 5657 5656 5655 5654 5655 5655 5654 5654 5655 5654
5678 5677 5678 5679 5680 5681 5683 5683 5684 5684 5683 5682 5680 5679 5678 5676 5674 5672 5669 5667 5664 5662 5660 5658 5657 5655 5654 5652 5652 5651 5649 5648 5647 5646 5644 5643 5642 5641 5641 5641 5641 5641 5640
5674 5674 5674 5676 5676 5677 5678 5677 5676 5676 5675 5674 5672 5671 5669 5667 5664 5662 5660 5659 5657 5655 5652 5650 5648 5647 5645 5644 5643 5640 5639 5637 5636 5635 5633 5631 5629 5628 5628 5629 5629 5627 5628
5670 5670 5671 5671 5671 5670 5670 5670 5670 5670 5670 5668 5667 5665 5663 5661 5658 5656 5654 5650 5647 5644 5641 5639 5638 5636 5634 5633 5632 5630 5628 5627 5626 5625 5625 5623 5620 5619 5619 5618 5619 5619 5619
5664 5662 5661 5662 5662 5662 5663 5663 5662 5661 5660 5659 5657 5653 5650 5648 5646 5644 5641 5639 5637 5635 5633 5630 5628 5626 5625 5624 5622 5621 5620 5619 5618 5618 5618 5615 5614 5612 5611 5609 5609 5609 5609
Wind_Speed
51 49 48 44 38 36 37 32 29 29 29 25 25 24 17 15 14 15 16 14 14 14 15 16 16 15 16 18 18 18 17 19 18 25 27 26 29 28 29 29 25 25 29
51 54 53 47 45 47 43 37 37 34 35 34 30 28 25 21 17 17 16 16 15 15 16 17 17 18 18 20 18 16 16 17 16 13 14 16 22 29 24 27 27 29 30
53 54 51 53 55 49 46 45 46 41 40 38 37 33 33 30 23 19 19 18 18 16 17 16 14 12 17 19 20 20 19 16 14 15 15 14 14 12 13 13 15 17 18
52 57 57 55 55 52 49 50 49 46 45 41 40 40 38 36 33 27 25 23 21 21 18 18 17 13 14 14 18 19 21 19 16 15 13 14 14 13 14 15 16 18 20
46 60 64 64 58 52 54 57 59 55 51 45 45 44 43 42 39 38 37 26 25 26 21 19 23 17 17 17 19 18 17 14 19 19 16 13 13 13 15 15 17 18 20
50 54 72 68 64 58 59 42 52 60 53 49 49 47 47 47 44 42 46 36 27 31 27 24 25 21 20 21 20 21 18 17 15 18 21 21 17 15 16 17 19 18 18
21 61 69 51 59 47 54 54 67 57 30 61 44 41 47 52 34 32 34 41 54 37 33 31 30 25 24 22 20 20 18 19 18 17 19 17 16 18 18 19 18 19 18
17 32 48 53 25 28 32 39 38 48 56 25 37 36 36 37 33 32 39 36 37 32 40 39 34 29 27 25 22 21 22 20 20 21 21 19 19 17 20 20 19 19 19
9 13 17 27 26 27 26 31 29 34 26 25 34 36 27 27 30 36 37 38 43 47 40 46 38 32 30 26 26 25 24 22 24 21 23 24 22 22 21 22 24 21 22
2 5 6 10 14 16 21 15 16 15 23 19 22 32 36 34 35 33 36 39 60 60 37 41 38 36 34 28 27 28 29 29 27 23 25 26 28 28 25 26 25 23 25
9 8 8 9 8 7 11 15 16 16 19 23 31 33 31 24 27 30 23 25 32 39 38 41 39 41 40 34 32 35 35 35 32 30 26 26 31 32 30 29 29 28 27
12 13 17 16 15 13 10 14 21 23 26 28 20 20 19 16 18 16 15 10 18 37 39 32 35 42 41 44 46 44 37 37 36 34 31 33 31 34 32 33 31 30 27
13 14 14 15 16 16 14 18 21 25 27 26 24 27 25 22 23 23 22 15 12 23 33 35 37 36 44 48 46 47 40 38 40 38 35 36 37 35 37 37 36 31 31
10 12 12 13 15 17 14 12 14 17 21 25 24 29 27 26 24 25 26 36 28 30 33 33 41 41 41 42 44 50 44 40 42 40 38 39 41 38 37 40 38 35 31
14 14 14 13 17 16 13 11 12 13 13 14 20 23 24 23 25 27 29 30 38 42 44 42 41 39 46 41 41 40 46 39 40 41 40 41 41 42 37 38 39 37 32
15 14 13 13 16 18 17 13 12 13 13 13 12 15 15 18 24 25 29 33 36 41 43 43 49 51 46 48 51 49 38 36 40 42 39 41 41 41 39 37 36 37 34
16 15 15 16 15 17 19 18 16 15 14 14 15 17 17 15 16 18 21 25 27 30 32 39 38 50 57 56 54 53 51 43 42 42 41 42 40 39 38 38 39 38 38
15 15 16 17 19 18 17 18 18 18 17 17 19 16 14 13 13 16 19 23 23 23 24 25 32 37 38 38 38 43 46 41 41 42 42 42 41 42 41 41 43 42 42
15 17 17 18 16 14 16 16 17 17 16 16 17 17 17 18 18 19 20 20 20 23 23 23 24 24 29 34 29 29 32 37 39 41 43 44 45 47 46 46 46 46 44
12 12 12 12 11 11 13 15 14 15 17 19 20 20 21 23 24 25 26 26 27 28 29 29 32 31 30 31 32 34 38 40 41 43 45 45 47 48 47 47 47 49 48
10 11 12 12 11 11 12 13 14 12 10 9 10 12 12 14 15 17 20 24 27 30 33 35 37 39 40 41 41 43 44 44 45 46 44 42 43 44 45 47 47 48 49
6 7 9 11 10 10 8 7 5 6 7 10 12 15 17 19 21 23 25 27 29 29 30 31 32 34 37 38 40 40 40 41 42 43 42 41 41 42 41 42 43 44 45
11 10 10 10 11 12 13 12 11 12 14 16 17 19 20 21 23 25 29 32 34 36 37 37 35 33 33 35 35 35 36 37 38 40 41 41 42 43 43 43 44 42 41
17 16 16 17 17 17 17 16 15 16 17 19 21 21 22 24 24 26 27 29 32 36 40 42 42 39 36 34 33 33 34 34 34 34 34 34 34 36 37 38 38 36 36
19 20 20 19 19 19 18 20 21 22 23 24 22 19 20 21 22 25 28 31 33 35 38 40 41 40 39 36 34 33 30 27 25 23 24 25 27 29 29 30 31 32 33
22 22 21 21 23 24 24 26 26 28 29 28 25 25 21 22 25 26 27 29 30 30 30 33 35 36 37 35 34 33 30 27 25 25 24 24 22 21 23 23 23 25 27
Wind_Direction
223 226 229 238 224 224 230 232 236 247 257 259 268 271 270 276 273 257 240 238 241 243 246 249 252 253 254 254 259 263 272 275 266 259 261 261 258 259 259 254 276 259 247
230 232 229 235 231 227 230 233 235 240 245 250 254 259 264 260 262 257 254 248 241 247 250 251 259 261 259 260 260 265 270 273 272 272 263 267 267 264 262 255 256 248 245
231 237 229 235 236 231 230 233 238 237 244 250 259 261 260 257 250 251 248 254 254 248 246 243 250 262 261 260 271 268 266 271 267 262 265 275 269 246 244 238 245 245 249
243 236 232 234 236 233 232 237 240 239 244 248 253 260 264 269 262 248 245 246 248 244 245 251 247 254 262 267 273 282 269 262 268 276 273 270 267 264 267 255 252 250 250
242 237 231 232 235 234 236 237 243 239 234 238 246 253 259 262 263 260 263 249 246 247 240 242 251 242 257 266 272 281 284 282 263 262 265 272 275 269 269 271 265 260 257
252 243 231 234 227 234 234 226 235 239 238 238 237 243 250 248 247 269 257 274 255 249 245 241 245 247 244 252 259 270 278 280 275 262 263 264 258 257 256 257 259 262 266
260 225 228 242 218 237 234 231 245 231 254 239 225 240 246 246 232 279 267 280 267 254 247 243 240 241 248 247 250 258 268 276 274 269 267 271 273 271 260 255 255 260 265
262 245 215 223 283 278 271 246 289 286 253 296 242 240 251 267 280 289 273 292 252 262 257 246 243 241 242 248 249 254 261 263 273 276 273 266 269 268 272 270 265 268 271
266 271 261 256 265 276 279 283 283 274 290 264 253 249 253 270 265 271 272 274 255 254 249 249 242 242 242 243 251 258 262 266 272 272 272 270 265 261 259 263 268 267 264
277 292 250 227 231 240 252 271 272 253 258 256 245 239 245 258 259 262 271 258 255 250 241 245 245 245 248 245 248 255 259 262 266 271 273 273 268 263 262 261 259 259 265
270 277 286 297 291 246 224 226 233 251 257 259 255 246 244 250 249 258 264 249 240 235 230 235 239 244 249 251 252 248 253 261 269 276 277 273 269 265 261 258 261 259 263
250 247 258 266 271 271 263 254 250 250 246 245 245 241 231 236 243 252 288 232 263 241 253 241 249 244 244 246 246 254 250 259 265 273 278 278 269 263 259 256 255 259 265
248 249 252 256 251 253 261 265 267 259 258 258 267 271 264 259 247 253 267 236 223 236 234 246 256 261 251 262 258 250 245 255 260 265 272 272 273 265 261 260 259 258 263
240 244 241 251 242 234 238 258 264 267 272 272 269 268 268 264 264 266 261 250 241 236 231 254 245 250 237 238 248 259 253 265 258 260 266 270 272 265 260 265 266 265 265
247 242 240 247 248 237 247 262 264 269 273 269 271 269 265 253 252 250 251 252 255 261 261 261 262 253 239 239 246 262 255 255 255 258 264 268 269 264 261 261 264 265 268
245 248 239 232 238 247 246 240 250 258 265 273 270 263 258 258 251 246 248 250 252 257 260 263 252 251 244 239 240 257 258 261 256 257 259 264 262 259 261 261 262 265 267
236 240 237 240 242 241 244 247 245 244 251 260 263 271 275 268 264 263 262 261 266 265 262 258 255 245 249 252 260 264 268 265 257 256 258 258 256 255 257 259 262 266 264
231 230 232 243 243 237 239 243 247 249 252 257 260 260 266 275 279 279 273 276 278 277 272 270 265 261 258 253 252 257 260 252 257 260 258 255 254 254 255 256 257 258 261
230 233 232 225 223 236 245 242 249 255 256 258 266 272 275 276 276 277 277 278 277 270 270 269 267 268 268 261 263 258 259 261 261 261 262 263 260 261 262 263 262 263 262
207 222 233 232 236 243 250 258 258 269 278 281 282 282 284 285 283 283 283 283 280 275 273 274 270 270 270 267 265 266 267 266 267 266 266 267 269 270 269 267 267 269 267
216 216 222 226 236 261 263 274 277 271 279 297 313 317 316 305 299 294 289 284 282 281 281 279 275 273 271 268 265 266 268 266 267 267 267 268 269 269 269 269 268 266 266
257 244 230 230 233 233 222 214 231 265 283 296 305 310 308 303 299 298 296 293 291 290 288 283 279 278 277 276 275 274 270 268 267 268 269 270 271 270 271 271 272 272 270
246 242 246 239 231 228 227 233 242 257 273 283 289 290 291 292 290 290 290 292 292 292 291 289 286 281 278 275 274 273 273 272 272 271 271 271 271 271 271 272 273 273 275
262 248 245 241 237 238 244 254 265 278 282 282 286 296 295 288 286 287 287 285 285 285 285 286 287 287 285 281 277 275 274 274 273 274 274 274 273 272 271 270 272 273 275
262 260 253 252 253 256 267 275 279 282 285 287 282 286 288 285 283 281 280 280 279 280 282 284 286 285 285 285 285 283 280 277 272 271 272 274 275 272 270 267 265 264 264
260 266 268 269 272 275 277 278 281 286 290 291 289 289 283 286 290 294 296 292 288 286 285 284 281 280 280 281 282 281 275 271 270 274 276 277 283 284 273 271 270 269 267